Torna al catalogo

WESTFORD NEEDLES

LostPO
NORAD 19299·DEBRIS·🇺🇸 United States

Lanciato May 9, 1963 da Vandenberg Space Force Base

Loading…

Prossimi Passaggi (prossime 24 ore)

TLE

ObsoletoSource: Space-Track

Epoca: Dec 3, 2025, 07:52 UTC

1 19299U 63014EL  25337.32789471 -.00000152  00000-0 -68871-1 0  9996
2 19299  87.2571 107.3487 0266974  48.5318 313.8137  8.67219330211442

Traccia WESTFORD NEEDLES in tempo reale con AllMySat

Download on the App Store